Simultaneous Nadir Overpasses (SNOs) Predictions

Prediction of SNOs between GOES-16 and NOAA-19 Satellite Orbit:

Table of predicted SNOs for the next 14.0 days since TLE Epoch: 9/14/2018
Index Date Time (GOES-16) GOES-16 Lat,Lon NOAA-19 Lat,Lon Distance(km) Time Diff (sec)
1 09/15/2018 21:28:00 0.02, -75.22 -0.53, -77.61 273.36 80
2 09/16/2018 21:13:45 0.02, -75.23 0.12, -74.79 50.19 80
3 09/17/2018 21:02:11 0.02, -75.24 0.78, -71.97 373.86 80
4 09/20/2018 09:25:59 -0.03, -75.29 0.35, -76.98 193.07 80
5 09/21/2018 09:11:44 -0.03, -75.30 -0.30, -74.16 131.07 80
6 09/22/2018 09:00:10 -0.03, -75.32 -0.95, -71.33 455.35 80
7 09/23/2018 21:35:49 0.03, -75.35 -0.88, -79.23 443.87 80
8 09/24/2018 21:24:15 0.03, -75.37 -0.22, -76.41 119.11 80
9 09/25/2018 21:10:00 0.03, -75.39 0.45, -73.59 205.78 80
10 09/28/2018 09:33:49 -0.03, -75.46 0.69, -78.61 358.99 80




NCC Satellite Simultaneous Nadir Overpasses (SNOs) Prediction Service
